Latest Coastal Weather Observations for Portland Harbour

IDV60701

Issued at 9:52 pm EDT Wednesday 7 December 2022 (issued every 10 minutes, with the page automatically refreshed every 10 minutes)

About coastal observations | Map of coastal stations | Coastal observations for VIC | Marine services | Other Formats
Station Details ID: 090192 Name: PORTLAND NTC AWS Lat: -38.34 Lon: 141.61 Height: 0.0 m
Data from the previous 72 hours. | See also: Recent months for locations in Victoria
Date/Time
EDT
Wind Sea
Height
m
Swell Vis
km
Cloud Weather Temp
°C
Press
MSL
hPa
Rain since
9am
mm
Dir  Spd
kts
Gust
kts
Height
m
Period
s
Dir
07/09:30pm SW 13 19 - - - - - - - 12.8 1012.2 -
07/09:00pm SW 18 23 - - - - - - - 13.2 1011.7 -
07/08:30pm SW 16 25 - - - - - - - 12.9 1011.5 -
07/08:00pm SW 17 25 - - - - - - - 13.1 1011.1 -
07/07:30pm SW 18 27 - - - - - - - 13.5 1010.6 -
07/07:24pm SW 17 27 - - - - - - - 13.4 1010.6 -
07/07:00pm SW 17 25 - - - - - - - 12.7 1010.1 -
07/06:36pm SW 21 31 - - - - - - - 14.2 1009.6 -
07/06:30pm SSW 22 31 - - - - - - - 14.2 1009.5 -
07/06:04pm SW 21 31 - - - - - - - 14.3 1008.9 -
07/06:00pm SW 20 30 - - - - - - - 14.3 1009.0 -
07/05:33pm SW 21 33 - - - - - - - 14.1 1008.8 -
07/05:30pm SW 21 30 - - - - - - - 14.3 1008.7 -
07/05:00pm SSW 23 32 - - - - - - - 14.1 1008.4 -
07/04:30pm SW 16 28 - - - - - - - 14.4 1007.9 -
07/04:07pm SW 16 26 - - - - - - - 13.9 1007.6 -
07/04:00pm SW 18 25 - - - - - - - 13.6 1007.8 -
07/03:42pm WSW 17 31 - - - - - - - 13.9 1007.7 -
07/03:30pm WSW 18 25 - - - - - - - 13.6 1007.6 -
07/03:12pm WSW 17 30 - - - - - - - 14.3 1007.5 -
07/03:00pm WSW 18 24 - - - - - - - 14.3 1007.5 -
07/02:33pm WSW 16 27 - - - - - - - 14.8 1007.0 -
07/02:30pm WSW 17 27 - - - - - - - 15.0 1007.1 -
07/02:01pm W 15 25 - - - - - - - 14.8 1007.2 -
07/02:00pm W 14 22 - - - - - - - 15.0 1007.2 -
07/01:54pm W 16 26 - - - - - - - 15.6 1007.0 -
07/01:30pm W 16 25 - - - - - - - 15.9 1007.0 -
07/01:00pm WSW 15 22 - - - - - - - 16.1 1006.9 -
07/12:34pm WSW 16 26 - - - - - - - 16.0 1007.1 -
07/12:30pm WSW 16 23 - - - - - - - 16.4 1007.2 -
07/12:00pm WSW 15 32 - - - - - - - 15.9 1007.1 -
07/11:59am WSW 15 32 - - - - - - - 16.0 1007.0 -
07/11:30am WSW 14 22 - - - - - - - 15.8 1007.0 -
07/11:00am WSW 13 19 - - - - - - - 15.2 1006.9 -
07/10:30am SW 13 21 - - - - - - - 15.0 1006.9 -
07/10:00am SW 11 16 - - - - - - - 14.8 1006.8 -
07/09:30am WSW 12 19 - - - - - - - 13.7 1007.1 -
07/09:00am SW 12 17 - - - - - - - 14.7 1006.8 -
07/08:30am SW 11 18 - - - - - - - 14.7 1006.6 -
07/08:00am SW 8 11 - - - - - - - 14.2 1006.3 -
07/07:30am SW 9 13 - - - - - - - 13.8 1005.9 -
07/07:00am SW 10 13 - - - - - - - 13.6 1005.7 -
07/06:30am SSW 11 13 - - - - - - - 13.6 1005.4 -
07/06:00am SW 9 13 - - - - - - - 13.6 1005.1 -
07/05:30am W 6 8 - - - - - - - 11.9 1004.9 -
07/05:00am WNW 6 7 - - - - - - - 12.1 1004.7 -
07/04:30am WNW 6 7 - - - - - - - 12.3 1004.7 -
07/04:00am W 3 5 - - - - - - - 12.8 1004.6 -
07/03:30am W 5 6 - - - - - - - 12.7 1004.9 -
07/03:00am WSW 4 5 - - - - - - - 13.1 1005.2 -
07/02:30am W 4 5 - - - - - - - 13.3 1005.4 -
07/02:00am N 3 5 - - - - - - - 14.3 1005.6 -
07/01:30am N 5 7 - - - - - - - 14.5 1005.9 -
07/01:00am E 5 7 - - - - - - - 14.7 1006.1 -
07/12:30am E 5 7 - - - - - - - 14.9 1006.2 -
07/12:00am ESE 5 7 - - - - - - - 14.9 1006.5 -
 
Date/Time
EDT
Wind Sea
Height
m
Swell Vis
km
Cloud Weather Temp
°C
Press
MSL
hPa
Rain since
9am
mm
Dir  Spd
kts
Gust
kts
Height
m
Period
s
Dir
06/11:30pm E 6 9 - - - - - - - 14.6 1007.0 -
06/11:00pm ESE 6 9 - - - - - - - 15.0 1007.1 -
06/10:30pm SE 9 12 - - - - - - - 14.8 1007.3 -
06/10:00pm SE 7 10 - - - - - - - 15.0 1007.8 -
06/09:30pm SSE 7 9 - - - - - - - 14.5 1008.1 -
06/09:00pm SE 8 11 - - - - - - - 14.8 1008.0 -
06/08:30pm SE 8 10 - - - - - - - 14.7 1008.2 -
06/08:00pm SSE 9 12 - - - - - - - 14.6 1008.3 -
06/07:30pm SE 10 11 - - - - - - - 15.0 1008.4 -
06/07:00pm SE 10 13 - - - - - - - 14.9 1008.5 -
06/06:30pm SE 11 14 - - - - - - - 15.2 1008.4 -
06/06:00pm SE 11 13 - - - - - - - 15.0 1008.5 -
06/05:30pm SE 11 14 - - - - - - - 15.5 1008.6 -
06/05:00pm ESE 7 12 - - - - - - - 15.2 1008.8 -
06/04:30pm ESE 5 10 - - - - - - - 15.3 1009.2 -
06/04:00pm ESE 5 9 - - - - - - - 15.3 1009.5 -
06/03:30pm ESE 5 10 - - - - - - - 15.0 1010.0 -
06/03:00pm ESE 4 8 - - - - - - - 15.2 1010.6 -
06/02:30pm ESE 4 7 - - - - - - - 15.1 1010.8 -
06/02:00pm SE 3 8 - - - - - - - 15.4 1011.0 -
06/01:30pm ESE 4 6 - - - - - - - 14.9 1011.4 -
06/01:00pm ESE 3 7 - - - - - - - 14.9 1011.7 -
06/12:30pm E 5 9 - - - - - - - 14.8 1011.8 -
06/12:00pm ESE 4 7 - - - - - - - 14.9 1012.2 -
06/11:30am ESE 4 10 - - - - - - - 14.6 1012.3 -
06/11:00am ESE 3 9 - - - - - - - 14.5 1012.8 -
06/10:30am ESE 3 11 - - - - - - - 14.2 1013.3 -
06/10:00am ESE 4 9 - - - - - - - 13.9 1013.4 -
06/09:30am ESE 4 11 - - - - - - - 14.0 1013.5 -
06/09:00am SSE 7 15 - - - - - - - 13.9 1013.9 -
06/08:30am SE 4 14 - - - - - - - 13.5 1014.0 -
06/08:00am SSE 7 15 - - - - - - - 13.3 1013.9 -
06/07:30am SE 6 17 - - - - - - - 13.4 1013.3 -
06/07:00am SSE 9 15 - - - - - - - 13.2 1013.8 -
06/06:30am SSE 11 18 - - - - - - - 13.2 1013.5 -
06/06:00am SSE 9 13 - - - - - - - 13.3 1013.8 -
06/05:30am SSE 10 17 - - - - - - - 13.2 1013.9 -
06/05:00am SSE 9 15 - - - - - - - 13.1 1014.0 -
06/04:30am SSE 9 15 - - - - - - - 12.9 1014.0 -
06/04:00am SSE 7 13 - - - - - - - 13.2 1014.3 -
06/03:30am SE 5 13 - - - - - - - 13.2 1014.8 -
06/03:00am S 8 11 - - - - - - - 13.2 1015.1 -
06/02:30am SSE 10 15 - - - - - - - 13.2 1015.4 -
06/02:00am SE 5 11 - - - - - - - 13.4 1015.6 -
06/01:30am SSE 8 12 - - - - - - - 13.3 1016.0 -
06/01:00am SSE 10 15 - - - - - - - 13.3 1016.2 -
06/12:30am SSE 8 15 - - - - - - - 13.4 1016.3 -
06/12:00am SSE 11 15 - - - - - - - 13.5 1016.4 -
 
Date/Time
EDT
Wind Sea
Height
m
Swell Vis
km
Cloud Weather Temp
°C
Press
MSL
hPa
Rain since
9am
mm
Dir  Spd
kts
Gust
kts
Height
m
Period
s
Dir
05/11:30pm SSE 10 16 - - - - - - - 13.6 1016.4 -
05/11:00pm SSE 11 17 - - - - - - - 13.5 1016.6 -
05/10:30pm SSE 11 15 - - - - - - - 13.7 1016.6 -
05/10:00pm S 9 14 - - - - - - - 13.6 1016.8 -
05/09:30pm SSE 11 18 - - - - - - - 13.8 1016.6 -
05/09:00pm S 13 20 - - - - - - - 13.7 1016.8 -
05/08:30pm S 10 15 - - - - - - - 13.9 1016.8 -
05/08:00pm S 11 16 - - - - - - - 14.1 1016.9 -
05/07:30pm S 11 16 - - - - - - - 14.2 1016.8 -
05/07:00pm S 11 18 - - - - - - - 14.1 1016.6 -
05/06:30pm S 14 19 - - - - - - - 14.2 1016.4 -
05/06:00pm S 13 17 - - - - - - - 14.0 1016.3 -
05/05:30pm S 13 19 - - - - - - - 14.6 1016.3 -
05/05:00pm S 15 21 - - - - - - - 14.5 1016.3 -
05/04:30pm S 15 21 - - - - - - - 14.7 1016.3 -
05/04:00pm S 17 25 - - - - - - - 15.0 1016.3 -
05/03:30pm S 16 21 - - - - - - - 14.6 1016.5 -
05/03:00pm S 15 21 - - - - - - - 14.7 1016.4 -
05/02:30pm S 18 23 - - - - - - - 14.5 1016.5 -
05/02:00pm SSW 17 23 - - - - - - - 14.7 1016.5 -
05/01:30pm S 18 25 - - - - - - - 14.7 1016.6 -
05/01:00pm S 18 26 - - - - - - - 14.9 1016.3 -
05/12:30pm S 18 24 - - - - - - - 14.8 1016.1 -
05/12:00pm S 18 23 - - - - - - - 14.8 1016.0 -
05/11:30am S 17 25 - - - - - - - 15.2 1015.7 -
05/11:20am S 19 29 - - - - - - - 14.6 1015.7 -
05/11:00am S 18 26 - - - - - - - 14.7 1015.4 -
05/10:30am S 18 26 - - - - - - - 14.6 1015.2 -
05/10:00am S 17 25 - - - - - - - 14.0 1015.0 -
05/09:30am S 18 24 - - - - - - - 13.7 1014.9 -
05/09:00am S 18 24 - - - - - - - 13.5 1014.8 -
05/08:38am S 15 26 - - - - - - - 13.4 1014.4 -
05/08:30am S 17 24 - - - - - - - 13.5 1014.4 -
05/08:00am S 18 27 - - - - - - - 13.3 1014.1 -
05/07:49am S 15 26 - - - - - - - 13.6 1013.9 -
05/07:30am S 19 26 - - - - - - - 13.7 1013.7 -
05/07:16am S 16 26 - - - - - - - 14.2 1013.4 -
05/07:00am S 17 24 - - - - - - - 14.2 1013.4 -
05/06:30am S 15 24 - - - - - - - 14.4 1013.0 -
05/06:00am S 19 27 - - - - - - - 14.3 1012.8 -
05/05:30am S 19 27 - - - - - - - 14.6 1012.4 -
05/05:00am S 17 23 - - - - - - - 14.5 1011.9 -
05/04:34am S 18 28 - - - - - - - 15.0 1011.5 -
05/04:30am S 20 28 - - - - - - - 14.9 1011.5 -
05/04:21am S 16 27 - - - - - - - 14.6 1011.4 -
05/04:00am S 14 21 - - - - - - - 15.6 1011.3 -
05/03:30am S 16 22 - - - - - - - 15.4 1011.2 -
05/03:00am S 19 27 - - - - - - - 15.3 1011.0 -
05/02:30am SSW 17 27 - - - - - - - 14.9 1010.7 -
05/02:29am SSW 17 27 - - - - - - - 15.0 1010.6 -
05/02:00am SSW 17 24 - - - - - - - 14.9 1010.4 -
05/01:46am SSW 15 25 - - - - - - - 14.6 1010.4 -
05/01:30am SSW 16 23 - - - - - - - 15.0 1010.3 -
05/01:00am SSW 15 22 - - - - - - - 15.4 1010.0 -
05/12:30am SSW 17 24 - - - - - - - 15.6 1009.8 -
05/12:00am SSW 16 21 - - - - - - - 16.1 1009.5 -
 
Date/Time
EDT
Wind Sea
Height
m
Swell Vis
km
Cloud Weather Temp
°C
Press
MSL
hPa
Rain since
9am
mm
Dir  Spd
kts
Gust
kts
Height
m
Period
s
Dir
04/11:30pm SW 12 18 - - - - - - - 16.4 1009.5 -
04/11:00pm SW 13 19 - - - - - - - 16.4 1009.3 -
04/10:30pm WSW 15 22 - - - - - - - 16.3 1009.0 -
04/10:00pm W 10 17 - - - - - - - 16.4 1008.6 -

Other formats

Comma delimited format used in spreadsheet applications
http://www.bom.gov.au/fwo/IDV60701/IDV60701.95826.axf

JavaScript Object Notation format (JSON) in row-major order
http://www.bom.gov.au/fwo/IDV60701/IDV60701.95826.json

Data quality

Most of these data are generated automatically and are frequently updated. Quality checks on data are not normally performed. It is possible for incorrect values to appear. Refer to information at About Latest Weather Observations and please check the disclaimer before using these data.